Caribou, ME

4:35 AM EST on February 23, 2017 (GMT -0500)
Caribou Municipal

Weather History for KCAR - January, 2013

Change the Weather History Date:

Thursday, January 31, 2013

  Actual Average Record
Temperature  
Mean Temperature 35 °F 10 °F  
Max Temperature 53 °F 20 °F 53 °F (2013)
Min Temperature 17 °F 1 °F -32 °F (1951)
Degree Days  
Heating Degree Days 30 55  
Month to date heating degree days 1646 1701  
Since 1 July heating degree days 4826 5294  
Cooling Degree Days 0 0  
Month to date cooling degree days 0 0  
Year to date cooling degree days 0 0  
Moisture  
Dew Point 35 °F    
Average Humidity 78    
Maximum Humidity 100    
Minimum Humidity 55    
Precipitation  
Precipitation 0.80 in 0.08 in 0.80 in (2013)
Month to date precipitation 2.39 2.71  
Year to date precipitation 2.39 2.71  
Snow  
Snow T in 0.80 in 6.90 in (1984)
Month to date snowfall 14.7 25.2  
Since 1 July snowfall 43.2 60.3  
Snow Depth 2.00 in    
Sea Level Pressure  
Sea Level Pressure 28.96 in    
Wind  
Wind Speed 19 mph (SSW)    
Max Wind Speed 37 mph    
Max Gust Speed 52 mph    
Visibility 5 miles    
Events Fog , Rain , Snow    
T = Trace of Precipitation, MM = Missing Value Source: NWS Daily Summary

Daily Weather History Graph

Daily Weather History Graph

Search for Another Location

Airport or City:

Trip Planner

Search our weather history database for the weather conditions in past years. The results will help you decide how hot, cold, wet, or windy it might be!

Date:

Astronomy

Jan. 31, 2013 Rise Set
Actual Time 6:57 AM EST 4:34 PM EST
Civil Twilight 6:25 AM EST 5:06 PM EST
Nautical Twilight 5:48 AM EST 5:43 PM EST
Astronomical Twilight 5:13 AM EST 6:18 PM EST
Moon 9:56 PM EST (1/31) 8:34 AM EST (1/31)
Length of Visible Light 10h 41m
Length of Day
9h 36m
Waning Gibbous, 80% of the Moon is Illuminated
Jan 31
Waning Gibbous
Feb 3
Last Quarter
Feb 10
New
Feb 17
First Quarter
Feb 25
Full

Hourly Weather History & Observations

Time (EST) Temp. Windchill Dew Point Humidity Pressure Visibility Wind Dir Wind Speed Gust Speed Precip Events Conditions
12:08 AM 44.6 °F 41.4 °F 42.8 °F 93% 29.29 in 1.2 mi SE 5.8 mph - 0.00 in   Overcast
12:17 AM 42.8 °F 39.3 °F 42.8 °F 100% 29.27 in 0.5 mi SE 5.8 mph - 0.00 in Fog Fog
12:30 AM 44.6 °F 40.7 °F 42.8 °F 93% 29.25 in 0.2 mi SE 6.9 mph - 0.00 in Fog Fog
12:43 AM 44.6 °F 42.2 °F 42.8 °F 93% 29.26 in 0.5 mi South 4.6 mph - 0.00 in Fog , Rain Light Rain
12:54 AM 44.1 °F 40.1 °F 43.0 °F 96% 29.27 in 0.5 mi South 6.9 mph - 0.00 in Fog , Rain Light Rain
1:25 AM 46.4 °F 43.5 °F 44.6 °F 93% 29.25 in 1.5 mi South 5.8 mph - 0.00 in   Overcast
1:35 AM 46.4 °F 42.4 °F 44.6 °F 93% 29.25 in 0.8 mi South 8.1 mph - 0.00 in Rain Light Rain
1:54 AM 45.0 °F 41.8 °F 45.0 °F 100% 29.26 in 0.5 mi SE 5.8 mph - 0.00 in Fog , Rain Light Rain
2:54 AM 45.0 °F 42.6 °F 44.1 °F 97% 29.23 in 0.2 mi ESE 4.6 mph - 0.02 in Fog , Rain Light Rain
3:54 AM 45.0 °F 41.8 °F 44.1 °F 97% 29.19 in 0.2 mi SE 5.8 mph - 0.04 in Fog , Rain Light Rain
4:54 AM 45.0 °F 40.6 °F 44.1 °F 97% 29.11 in 0.2 mi SSE 8.1 mph - 0.15 in Fog , Rain Rain
5:42 AM 48.2 °F - 46.4 °F 93% 29.02 in 1.2 mi SSE 13.8 mph 25.3 mph 0.15 in Rain Light Rain
5:54 AM 46.9 °F - 46.9 °F 100% 29.03 in 0.5 mi SSE 10.4 mph - 0.17 in Fog , Rain Light Rain
6:04 AM 48.2 °F - 46.4 °F 93% 29.01 in 1.8 mi South 16.1 mph 23.0 mph 0.01 in Rain Light Rain
6:06 AM 48.2 °F - 46.4 °F 93% 29.01 in 3.0 mi South 13.8 mph 23.0 mph 0.01 in Rain Light Rain
6:54 AM 48.0 °F - 46.9 °F 96% 28.96 in 2.5 mi South 16.1 mph - 0.06 in Rain Light Rain
7:38 AM 48.2 °F - 48.2 °F 100% 28.90 in 5.0 mi South 17.3 mph 25.3 mph 0.06 in Rain Light Rain
7:51 AM 48.2 °F - 48.2 °F 100% 28.88 in 4.0 mi South 17.3 mph 24.2 mph 0.07 in Rain Light Rain
7:54 AM 50.0 °F - 48.0 °F 93% 28.90 in 5.0 mi SSE 18.4 mph 25.3 mph 0.07 in Rain Light Rain
8:08 AM 50.0 °F - 48.2 °F 94% 28.86 in 5.0 mi SSE 16.1 mph 26.5 mph 0.03 in Rain Light Rain
8:54 AM 50.0 °F - 48.9 °F 96% 28.80 in 7.0 mi South 17.3 mph 25.3 mph 0.09 in Rain Light Rain
9:54 AM 52.0 °F - 50.0 °F 93% 28.75 in 5.0 mi South 19.6 mph 28.8 mph 0.05 in Rain Light Rain
10:16 AM 51.8 °F - 50.0 °F 94% 28.71 in 6.0 mi South 20.7 mph 32.2 mph 0.00 in Rain Light Rain
10:54 AM 53.1 °F - 50.0 °F 89% 28.70 in 10.0 mi South 20.7 mph 28.8 mph 0.00 in Rain Light Rain
11:54 AM 51.1 °F - 48.9 °F 92% 28.61 in 10.0 mi South 13.8 mph - 0.02 in   Overcast
12:32 PM 50.0 °F - 48.2 °F 94% 28.59 in 1.5 mi SW 31.1 mph 44.9 mph 0.01 in Rain Light Rain
12:36 PM 46.4 °F 39.5 °F 44.6 °F 93% 28.60 in 1.2 mi West 17.3 mph 44.9 mph 0.08 in Rain Rain
12:40 PM 46.4 °F 39.0 °F 42.8 °F 87% 28.60 in 1.5 mi West 19.6 mph 44.9 mph N/A Rain Light Rain
12:42 PM 46.4 °F 38.7 °F 42.8 °F 87% 28.60 in 3.0 mi West 20.7 mph 38.0 mph 0.08 in Rain Light Rain
12:54 PM 44.1 °F 35.9 °F 41.0 °F 89% 28.65 in 5.0 mi WSW 19.6 mph 32.2 mph 0.10 in Rain Light Rain
1:25 PM 41.0 °F 30.7 °F 37.4 °F 87% 28.64 in 9.0 mi WSW 25.3 mph 36.8 mph 0.02 in Rain Light Rain
1:39 PM 39.2 °F 27.4 °F 35.6 °F 87% 28.65 in 6.0 mi WSW 29.9 mph 47.2 mph 0.03 in Rain Light Rain
1:54 PM 39.0 °F 28.0 °F 35.1 °F 86% 28.70 in 6.0 mi WSW 25.3 mph 41.4 mph 0.03 in Rain Light Rain
2:54 PM 36.0 °F 24.7 °F 32.0 °F 86% 28.77 in 10.0 mi WSW 21.9 mph 34.5 mph 0.00 in Rain Light Rain
3:07 PM 35.6 °F 24.0 °F 30.2 °F 81% 28.77 in 10.0 mi WSW 23.0 mph 38.0 mph 0.00 in   Overcast
3:37 PM 35.6 °F 23.2 °F 26.6 °F 70% 28.80 in 10.0 mi West 26.5 mph 44.9 mph 0.00 in   Mostly Cloudy
3:54 PM 35.1 °F 23.3 °F 27.0 °F 72% 28.83 in 10.0 mi WSW 23.0 mph 31.1 mph 0.00 in   Overcast
4:54 PM 33.1 °F 19.8 °F 19.9 °F 59% 28.90 in 10.0 mi WSW 26.5 mph 42.6 mph N/A   Partly Cloudy
5:54 PM 33.1 °F 20.9 °F 21.0 °F 61% 28.94 in 10.0 mi WSW 21.9 mph 42.6 mph N/A   Overcast
6:54 PM 30.9 °F 17.8 °F 17.1 °F 57% 28.99 in 10.0 mi WSW 23.0 mph 39.1 mph 0.00 in   Overcast
7:54 PM 28.9 °F 14.3 °F 17.1 °F 61% 29.02 in 10.0 mi WSW 26.5 mph 36.8 mph 0.00 in   Mostly Cloudy
8:23 PM 26.6 °F 10.6 °F 19.4 °F 74% 29.02 in 2.0 mi WSW 28.8 mph 43.7 mph 0.00 in Snow Light Snow
8:30 PM 26.6 °F 11.7 °F 17.6 °F 69% 29.02 in 4.0 mi WSW 24.2 mph 38.0 mph 0.00 in Snow Light Snow
8:54 PM 26.1 °F 10.4 °F 16.0 °F 66% 29.06 in 10.0 mi WSW 26.5 mph 36.8 mph 0.00 in   Mostly Cloudy
9:54 PM 24.1 °F 5.6 °F 10.0 °F 55% 29.08 in 10.0 mi WSW 35.7 mph 46.0 mph 0.00 in   Overcast
10:54 PM 21.0 °F 3.6 °F 10.0 °F 63% 29.12 in 6.0 mi WSW 26.5 mph 38.0 mph 0.00 in Snow Light Snow
11:16 PM 19.4 °F 5.0 °F 10.4 °F 68% 29.12 in 2.5 mi West 16.1 mph 31.1 mph 0.00 in Snow Light Snow
11:24 PM 19.4 °F 3.2 °F 10.4 °F 68% 29.13 in 7.0 mi WSW 20.7 mph 28.8 mph 0.00 in Snow Light Snow
11:35 PM 17.6 °F 0.1 °F 6.8 °F 63% 29.13 in 7.0 mi West 23.0 mph 32.2 mph 0.00 in Snow Light Snow
11:47 PM 17.6 °F 1.7 °F 3.2 °F 53% 29.15 in 9.0 mi West 18.4 mph 34.5 mph 0.00 in   Overcast
11:54 PM 17.1 °F 0.1 °F 3.0 °F 54% 29.18 in 10.0 mi West 20.7 mph 34.5 mph 0.00 in   Overcast